Regional Weather Roundup
Issued by NWS

Home | Current Version | Previous Version | Graphics & Text | Print | Product List | Glossary On
Versions: 1 2 3 4 5 6 7 8 9 10 11 12 13 14 15 16 17 18 19 20 21 22 23 24 25 26 27 28 29 30 31 32 33 34 35 36 37 38 39 40 41 42 43 44 45 46 47 48 49 50
000
ASUS43 KIND 282109
RWRIN

WEATHER ROUNDUP FOR INDIANA
NATIONAL WEATHER SERVICE INDIANAPOLIS IN
500 PM EDT FRI AUG 28 2015

NOTE: "FAIR" INDICATES FEW OR NO CLOUDS BELOW 12,000 FEET WITH NO
SIGNIFICANT WEATHER AND/OR OBSTRUCTIONS TO VISIBILITY.

* - STATION DOES NOT REPORT WEATHER SUCH AS PRECIPITATION OR FOG.

+ - STATION NOT QUALITY CONTROLLED BY THE NATIONAL WEATHER SERVICE.
    USE DATA WITH CAUTION...ESPECIALLY DEWPOINT AND RELATIVE
    HUMIDITY OBSERVATIONS.

INZ001>003-010>013-019-020-282200-
NORTHWEST INDIANA

CITY           SKY/WX    TMP DP  RH WIND       PRES   REMARKS
GARY /AIRPORT/ CLOUDY    75  57  53 VRB5      30.10F
KNOX *+        CLOUDY    75  57  53 S5        30.11F
LA PORTE +     CLOUDY    76  62  61 CALM      30.12F
MICHIGAN CITY+ CLOUDY    73  61  64 CALM      30.11F
MONTICELLO +   CLOUDY    76  60  57 S5        30.11F
RENSSELAER +   CLOUDY    77  61  57 SE5       30.11F
VALPARAISO     CLOUDY    76  61  59 CALM      30.11F

$$

LMZ046-743>745-282200-
SOUTHERN LAKE MICHIGAN

STATION/POSITION TIME  TEMP    WIND        PRES    WAVE
                       AIR SEA DIR/SP/G            HT
                 (UTC) (F)     (DEG/KT/KT) (MB)    (FT)
MICHIGAN CITY    2000   73     260/  4/  4   N/A
5NW MICH CITY    2100   72 71   80/  2/  2   N/A     0

$$

INZ004-005-014>016-021>024-282200-
NORTH CENTRAL INDIANA

CITY           SKY/WX    TMP DP  RH WIND       PRES   REMARKS
ELKHART        CLOUDY    75  59  57 S5        30.13F
GOSHEN         CLOUDY    77  60  55 SW7       30.13F
LOGANSPORT +   CLOUDY    77  50  38 SE6       30.13F
PERU/GRISSOM   CLOUDY    77  60  55 SE6       30.12F
ROCHESTER +    CLOUDY    79  59  50 S5        30.13F
SOUTH BEND     CLOUDY    75  60  59 W5        30.12F
WARSAW +       CLOUDY    75  59  57 SW3       30.13F

$$

INZ006>009-017-018-025>027-282200-
NORTHEAST INDIANA

CITY           SKY/WX    TMP DP  RH WIND       PRES   REMARKS
ANGOLA *+      SUNNY     79  72  78 SW3       30.14F
AUBURN +       PTSUNNY   77  55  47 CALM      30.15F
FORT WAYNE     CLOUDY    77  57  50 SW3       30.15S
HUNTINGTON +   CLOUDY    76  53  43 S3        30.14S

$$

INZ028-029-035-036-043>045-051>053-282200-
WEST CENTRAL INDIANA

CITY           SKY/WX    TMP DP  RH WIND       PRES   REMARKS
CRAWFORDSVL +  PTSUNNY   76  51  42 E8        30.11F
GREENCASTLE +  MOSUNNY   79  52  38 SE8       30.11F
LAFAYETTE      PTSUNNY   78  55  44 SE7       30.10F
TERRE HAUTE    MOSUNNY   80  56  43 SE7       30.09F

$$

INZ030>032-037>040-046>048-054>057-064-065-282200-
CENTRAL INDIANA

CITY           SKY/WX    TMP DP  RH WIND       PRES   REMARKS
COLUMBUS       SUNNY     77  50  38 SE8       30.12
FRANKFORT +    CLOUDY    78  62  57 E7        30.14F
GREENWOOD *+   PTSUNNY   79  52  38 E5        30.13F
INDIANAPOLIS   PTSUNNY   77  54  44 E5        30.11F
-EAGLE CREEK   PTSUNNY   77  55  46 VRB7      30.11F
KOKOMO *+      CLOUDY    77  59  53 SE6       30.13F
MARION +       PTSUNNY   76  44  31 CALM      30.15S
MT COMFORT *+  CLOUDY    79  45  29 E5        30.14S
SHELBYVILLE    PTSUNNY   79  56  45 E3        30.12F
ZIONSVILLE +   PTSUNNY   78  55  45 E8        30.13F

$$

INZ033-034-041-042-049-050-058-059-282200-
EAST CENTRAL INDIANA

CITY           SKY/WX    TMP DP  RH WIND       PRES   REMARKS
MUNCIE         CLOUDY    75  55  49 VRB7      30.14F

$$

INZ060-061-067>069-081>083-085>088-282200-
SOUTHWEST INDIANA

CITY           SKY/WX    TMP DP  RH WIND       PRES   REMARKS
EVANSVILLE     SUNNY     82  59  45 SE6       30.08F
HUNTINGBURG *+ SUNNY     81  59  47 SW8       30.09F
WASHINGTON +   SUNNY     81  49  33 E3        30.08F

$$

INZ062-063-066-070>080-084-089>092-282200-
SOUTH CENTRAL AND SOUTHEAST INDIANA

CITY           SKY/WX    TMP DP  RH WIND       PRES   REMARKS
BLOOMINGTON    MOSUNNY   77  57  50 E6        30.11F
MADISON *+     MOSUNNY   79  52  38 SE5       30.13F
NORTH VERNON + PTSUNNY   79  54  41 CALM      30.13F
SEYMOUR +      PTSUNNY   82  57  42 SE3       30.10F

$$



USA.gov is the U.S. government's official web portal to all federal, state and local government web resources and services.